Back to catalog

FALCON 9 R/B

AliveHEO
NORAD 43563·ROCKET BODY·🇺🇸 United States

Launched Jul 22, 2018 from Cape Canaveral Space Force Station

Loading…

Next Passes (next 24 hours)

TLE

FreshSource: Space-Track

Epoch: Sep 14, 2026, 00:32 UTC

1 43563U 18059B   26257.02231759  .00099940 -50622-6  93016-3 0  9990
2 43563  26.9878 268.0098 4038314 331.7062  11.2719  7.50367305164076

Track FALCON 9 R/B in real time with AllMySat

Download on the App Store